Find Starlink 36353

NORAD ID: 67820 Int'l Des: 2026-032 Owner: SPXS Country: US Constellation: starlink operational
LEOCIRCULARRETROGRADE

当前视图

正在加载3D地球...

关于 Starlink 36353

正在加载描述...

即将过境

Passes for default location (London). Set your location on the main map for personalized predictions.

高度历史

Loading altitude history...

两行轨道根数

1 67820U 26032Z 26146.48342655 .00011016 00000-0 34304-3 0 9998
2 67820 97.2854 334.5716 0001531 85.3537 274.7881 15.33446299 16886
Epoch: May 26, 2026 • Age: 11 hours

当前状态

高度 478.0 km
速度 7.63 km/s
星下点 81.84°N, 11.57°W
发射日期 Feb 15, 2026
运行时间 0.2 years
类型 internet

技术详情

分类 Payload
质量 575.00 kg
干质量 530.00 kg
总质量 575.00 kg
长度 0.30 m
直径 4.10 m
跨度 29.00 m
形状 Box + pan
制造商 SPXS
平台类型 Starlink V2MO
阶段状态 In Orbit
所有者/国家 SPXS/US

Most Searched